CW7748 Weather Reports


Display with metric or nautical units.
time (UTC)temp
F
wind
direction
speed
MPH
gust
MPH
rain 1hr
in
rain 24hr
in
rain mn
in
humidity
%
barometer
mb
20260510110854 0 0.0 0.0 0.00 0.22 0.01 1020.8
20260510110352 0 0.0 0.0 0.00 0.22 0.01 1020.6
20260510104848 0 0.0 0.0 0.00 0.22 0.01 1020.4
20260510104347 0 0.0 0.0 0.00 0.22 0.01 1020.3
20260510103847 0 0.0 0.0 0.00 0.22 0.01 1020.1
20260510103345 0 0.0 0.0 0.00 0.22 0.01 1020.0
20260510102844 0 0.0 0.0 0.00 0.22 0.01 1020.1
20260510101842 0 0.0 0.0 0.00 0.22 0.01 1019.9
20260510101341 0 0.0 0.0 0.00 0.22 0.01 1019.9
20260510100843 0 0.0 0.0 0.00 0.22 0.01 1019.8
20260510095837 0 0.0 0.0 0.00 0.22 0.01 1019.6
20260510095336 0 0.0 0.0 0.00 0.22 0.01 1019.6
20260510094835 0 0.0 0.0 0.00 0.22 0.01 1019.8
20260510093833 0 0.0 0.0 0.00 0.22 0.01 1019.7
20260510093331 0 0.0 0.0 0.00 0.22 0.01 1019.7
20260510092830 0 0.0 0.0 0.00 0.22 0.01 1019.6
20260510092329 0 0.0 0.0 0.00 0.22 0.01 1019.7
20260510091828 66 75 0.0 0.0 0.00 0.22 0.01 94 1019.6
20260510091327 66 75 0.0 0.0 0.00 0.22 0.01 94 1019.6
20260510090826 67 75 0.0 0.0 0.00 0.22 0.01 94 1019.4
20260510090325 66 75 0.0 0.0 0.00 0.22 0.01 94 1019.4
20260510085826 67 75 0.0 0.0 0.00 0.22 0.01 94 1019.3
20260510085325 67 75 0.0 0.0 0.00 0.22 0.01 94 1019.2
20260510084826 67 75 0.0 0.0 0.00 0.22 0.01 94 1019.1
20260510083825 67 75 0.0 0.0 0.00 0.22 0.01 94 1019.1
20260510083326 67 75 0.0 0.0 0.00 0.22 0.01 94 1019.0
20260510082326 67 102 0.0 0.0 0.00 0.22 0.01 94 1019.0
20260510081825 67 102 0.0 0.0 0.00 0.22 0.01 94 1019.1
20260510081326 67 102 0.0 0.0 0.00 0.22 0.01 93 1019.0
20260510080824 67 102 0.0 0.0 0.00 0.22 0.01 93 1019.0
20260510075824 67 102 0.0 0.0 0.00 0.22 0.01 93 1018.9
20260510075325 67 102 0.0 0.0 0.00 0.22 0.01 93 1018.8
20260510074825 67 102 0.0 0.0 0.00 0.22 0.01 93 1018.7
20260510074325 67 102 0.0 0.0 0.01 0.22 0.01 93 1018.7
20260510073825 67 102 0.0 0.0 0.01 0.22 0.01 93 1018.6
20260510073324 67 102 0.0 0.0 0.01 0.22 0.01 93 1018.7
20260510072824 67 102 0.0 0.0 0.01 0.22 0.01 93 1018.7
20260510072323 67 102 0.0 0.0 0.01 0.22 0.01 93 1018.8
20260510071824 67 102 0.0 0.0 0.01 0.22 0.01 93 1018.8
20260510070824 68 102 0.0 0.0 0.01 0.22 0.01 93 1018.9
20260510065823 68 102 0.0 0.0 0.01 0.22 0.01 93 1018.9
20260510065324 68 102 0.0 0.0 0.01 0.22 0.01 93 1019.0
20260510064823 68 102 0.0 0.0 0.01 0.22 0.01 93 1019.1
20260510064323 0 0.0 0.0 0.00 0.21 0.00 1019.2
20260510063822 68 102 0.0 0.0 0.00 0.21 0.00 93 1019.1
20260510062316 68 102 0.0 0.0 0.00 0.21 0.00 93 1019.2
20260510061815 68 102 0.0 0.0 0.00 0.21 0.00 93 1019.1
20260510061320 0 0.0 0.0 0.00 0.21 0.00 1019.1
20260510060819 69 102 0.0 0.0 0.00 0.21 0.00 94 1019.1
20260510060317 69 102 0.0 0.0 0.00 0.21 0.00 94 1019.2
20260510055316 69 102 0.0 1.0 0.00 0.21 0.00 94 1019.4
20260510054316 69 102 0.0 0.0 0.00 0.21 0.00 94 1019.4
20260510053817 69 102 0.0 2.0 0.00 0.21 0.00 94 1019.5
20260510053317 69 102 0.0 2.0 0.00 0.21 0.00 94 1019.5
20260510052816 69 102 0.0 1.0 0.00 0.21 0.00 94 1019.5
20260510051815 69 102 0.0 1.0 0.00 0.21 0.00 94 1019.6
20260510051315 69 102 0.0 2.0 0.00 0.21 0.00 94 1019.6
20260510050816 69 102 1.0 3.0 0.00 0.21 0.00 94 1019.6
20260510045815 69 110 0.0 2.0 0.00 0.21 0.00 94 1019.8
20260510045315 69 110 1.0 6.0 0.00 0.21 0.00 94 1019.7
20260510044816 69 113 2.0 6.0 0.00 0.21 0.00 94 1019.8
20260510044315 69 114 1.0 5.0 0.00 0.21 0.00 94 1019.7
20260510043815 69 130 2.0 5.0 0.00 0.21 0.00 94 1019.7
20260510043314 69 103 1.0 3.0 0.00 0.21 0.00 94 1019.9
20260510042815 69 100 1.0 3.0 0.00 0.21 0.00 94 1019.9
20260510041814 69 106 1.0 3.0 0.00 0.21 0.00 94 1020.2
20260510040814 69 110 1.0 3.0 0.00 0.21 0.00 94 1020.3
20260510040313 69 118 1.0 3.0 0.00 0.21 0.00 94 1020.4
20260510035813 69 120 1.0 2.0 0.00 0.21 0.21 94 1020.4
20260510035313 69 125 0.0 2.0 0.00 0.21 0.21 94 1020.5
20260510034813 69 165 0.0 2.0 0.00 0.21 0.21 94 1020.6
20260510034315 69 171 0.0 2.0 0.00 0.21 0.21 93 1020.6
20260510033814 69 111 0.0 1.0 0.00 0.21 0.21 93 1020.5
20260510033313 69 110 0.0 1.0 0.00 0.21 0.21 93 1020.5
20260510032812 69 83 0.0 2.0 0.00 0.21 0.21 93 1020.4
20260510032313 69 82 0.0 2.0 0.00 0.21 0.21 93 1020.4
20260510031812 69 82 0.0 0.0 0.00 0.21 0.21 93 1020.5
20260510031312 69 82 0.0 0.0 0.00 0.21 0.21 93 1020.5
20260510030812 69 82 0.0 0.0 0.00 0.21 0.21 93 1020.4
20260510030313 69 82 0.0 0.0 0.00 0.22 0.21 93 1020.5
20260510025812 69 82 0.0 0.0 0.00 0.28 0.21 93 1020.4
20260510025313 69 82 0.0 0.0 0.00 0.28 0.21 93 1020.4
20260510024813 69 82 0.0 0.0 0.00 0.28 0.21 93 1020.4
20260510024312 69 82 0.0 0.0 0.00 0.28 0.21 93 1020.3
20260510023812 69 82 0.0 0.0 0.00 0.28 0.21 93 1020.2
20260510023312 69 82 0.0 0.0 0.00 0.28 0.21 93 1020.2
20260510022812 69 82 0.0 1.0 0.00 0.28 0.21 93 1020.3
20260510022311 69 82 0.0 1.0 0.00 0.28 0.21 93 1020.1
20260510021811 69 82 0.0 0.0 0.00 0.28 0.21 93 1020.3
20260510021310 69 82 0.0 0.0 0.00 0.28 0.21 93 1020.2
20260510020812 69 82 0.0 0.0 0.00 0.28 0.21 93 1020.1
20260510015312 69 82 0.0 2.0 0.00 0.28 0.21 93 1020.0
20260510014810 69 83 0.0 1.0 0.00 0.28 0.21 93 1019.9
20260510014312 69 83 0.0 1.0 0.00 0.28 0.21 93 1020.0
20260510013812 69 82 0.0 0.0 0.00 0.28 0.21 93 1019.6
20260510013311 69 82 0.0 0.0 0.00 0.28 0.21 93 1019.3
20260510012810 69 82 0.0 0.0 0.00 0.28 0.21 93 1019.3
20260510012310 69 82 0.0 0.0 0.00 0.28 0.21 93 1019.4
20260510011811 69 82 0.0 0.0 0.00 0.28 0.21 93 1019.5
20260510011309 69 82 0.0 2.0 0.00 0.28 0.21 93 1019.3
20260510010811 69 82 0.0 2.0 0.00 0.28 0.21 93 1019.3
20260510010309 69 82 0.0 1.0 0.00 0.28 0.21 93 1019.0
20260510005308 69 82 0.0 0.0 0.00 0.28 0.21 93 1019.2
20260510004810 69 82 0.0 1.0 0.00 0.28 0.21 93 1019.3
20260510004310 69 82 0.0 2.0 0.00 0.28 0.21 93 1019.2
20260510003810 69 82 2.0 2.0 0.00 0.28 0.21 93 1019.3
20260510003310 69 39 0.0 2.0 0.00 0.28 0.21 93 1018.9
20260510002309 69 39 0.0 1.0 0.00 0.28 0.21 93 1019.0
20260510001317 69 39 0.0 1.0 0.00 0.28 0.21 93 1018.8
20260510000334 70 38 0.0 2.0 0.00 0.28 0.21 93 1019.1
20260509235809 70 38 0.0 2.0 0.00 0.28 0.21 93 1019.0
20260509235309 70 31 0.0 2.0 0.00 0.28 0.21 93 1019.1
20260509234808 70 31 1.0 2.0 0.00 0.28 0.21 92 1019.1
20260509233808 70 30 0.0 2.0 0.02 0.28 0.21 92 1019.1
20260509232319 70 63 1.0 2.0 0.03 0.28 0.21 92 1019.1
20260509231824 70 63 0.0 2.0 0.04 0.28 0.21 92 1019.2
20260509231307 70 54 1.0 2.0 0.05 0.28 0.21 92 1019.2
20260509230308 70 1 0.0 1.0 0.06 0.28 0.21 92 1019.4
20260509225808 70 1 0.0 1.0 0.10 0.28 0.21 92 1019.5
20260509225306 70 1 0.0 2.0 0.15 0.28 0.21 92 1019.8
20260509224807 70 1 1.0 2.0 0.16 0.28 0.21 92 1019.7
20260509224307 70 107 1.0 2.0 0.15 0.27 0.20 92 1019.4
20260509223807 70 161 0.0 0.0 0.14 0.26 0.20 91 1019.8
20260509223306 70 158 0.0 2.0 0.13 0.24 0.18 91 1019.8
20260509222806 70 158 0.0 2.0 0.13 0.24 0.18 91 1019.8
20260509222307 70 158 0.0 2.0 0.13 0.24 0.18 91 1019.8
20260509221307 71 158 0.0 1.0 0.11 0.23 0.17 91 1020.0
20260509220806 71 158 0.0 2.0 0.11 0.23 0.17 91 1019.9
20260509215806 71 210 1.0 2.0 0.06 0.17 0.11 92 1019.8
20260509214306 71 317 2.0 3.0 0.00 0.12 0.06 92 1019.6
20260509213804 71 329 0.0 3.0 0.02 0.12 0.06 92 1019.6
20260509213305 71 330 1.0 3.0 0.02 0.12 0.06 92 1019.5
20260509212805 71 333 2.0 3.0 0.02 0.12 0.06 92 1019.4
20260509211805 71 336 1.0 2.0 0.02 0.12 0.06 91 1019.2
20260509211304 71 334 0.0 2.0 0.02 0.12 0.06 91 1019.2
20260509210805 71 334 1.0 3.0 0.02 0.12 0.06 91 1019.1
20260509205803 71 320 2.0 3.0 0.02 0.12 0.06 91 1019.0
20260509205306 71 0 1.0 3.0 0.02 0.12 0.06 91 1019.0
20260509204805 71 1 1.0 4.0 0.02 0.12 0.06 90 1018.9
20260509204304 71 341 2.0 5.0 0.04 0.12 0.06 90 1018.9
20260509203804 71 320 3.0 5.0 0.02 0.10 0.04 89 1018.9
20260509203304 71 334 3.0 5.0 0.02 0.10 0.04 89 1019.1
20260509202802 71 324 3.0 4.0 0.02 0.10 0.04 89 1019.2
20260509202306 71 334 1.0 5.0 0.02 0.10 0.04 89 1019.1
20260509201803 71 333 4.0 5.0 0.02 0.09 0.03 88 1019.0
20260509201304 71 347 2.0 5.0 0.02 0.09 0.03 89 1019.1
20260509200804 72 0 3.0 9.0 0.02 0.09 0.03 89 1019.0
20260509200303 72 354 3.0 9.0 0.02 0.10 0.03 88 1019.0
20260509195802 72 337 4.0 9.0 0.02 0.11 0.03 87 1019.0
20260509194802 74 317 4.0 10.0 0.02 0.11 0.03 83 1019.0
20260509194303 74 313 6.0 13.0 0.00 0.09 0.02 83 1018.9
20260509193803 75 331 8.0 14.0 0.00 0.09 0.02 81 1018.8
20260509192803 78 309 10.0 15.0 0.00 0.09 0.02 84 1018.8
20260509192305 79 313 5.0 7.0 0.00 0.09 0.02 85 1018.7
20260509191803 79 351 3.0 10.0 0.00 0.09 0.02 86 1018.8
20260509191303 79 344 4.0 10.0 0.00 0.09 0.02 86 1018.8
20260509190802 79 319 2.0 6.0 0.00 0.09 0.02 86 1018.9
20260509190301 79 0 1.0 4.0 0.00 0.10 0.02 86 1018.9
20260509185801 79 178 1.0 4.0 0.00 0.10 0.02 85 1019.0
20260509185301 79 207 2.0 6.0 0.00 0.10 0.02 86 1019.2
20260509184801 78 285 2.0 6.0 0.00 0.10 0.02 87 1019.1
20260509184301 78 281 1.0 6.0 0.00 0.10 0.02 86 1019.0
20260509183802 79 317 4.0 5.0 0.00 0.10 0.02 87 1019.1
20260509183302 78 190 1.0 7.0 0.00 0.10 0.02 86 1019.1
20260509182800 78 244 2.0 7.0 0.00 0.10 0.02 87 1019.2
20260509182300 78 213 2.0 4.0 0.00 0.10 0.02 87 1019.2
20260509181801 78 324 3.0 4.0 0.00 0.10 0.02 86 1019.1
20260509175800 77 345 2.0 4.0 0.01 0.10 0.02 87 1019.3
20260509175259 77 330 0.0 4.0 0.01 0.10 0.02 84 1019.3
20260509173800 78 326 2.0 7.0 0.02 0.10 0.02 84 1019.4
20260509173300 78 316 4.0 9.0 0.02 0.10 0.02 83 1019.3
20260509172759 79 316 4.0 9.0 0.02 0.10 0.02 82 1019.4
20260509171759 80 312 2.0 4.0 0.02 0.10 0.02 82 1019.3
20260509171300 80 310 1.0 2.0 0.01 0.09 0.01 83 1019.4
20260509170800 80 171 0.0 2.0 0.01 0.09 0.01 81 1019.4
20260509170300 80 171 0.0 1.0 0.01 0.09 0.01 81 1019.4
20260509165800 80 169 0.0 2.0 0.01 0.09 0.01 81 1019.5
20260509165255 81 169 0.0 4.0 0.01 0.09 0.01 79 1019.5
20260509164259 81 212 2.0 5.0 0.00 0.09 0.00 77 1019.5
20260509163759 81 183 2.0 4.0 0.00 0.09 0.00 76 1019.4
20260509163259 82 231 2.0 6.0 0.00 0.09 0.00 76 1019.4
20260509162758 82 227 2.0 6.0 0.00 0.09 0.00 77 1019.6
20260509162258 82 109 1.0 4.0 0.00 0.09 0.00 77 1019.6
20260509161757 82 228 1.0 4.0 0.00 0.09 0.00 77 1019.6
20260509161258 82 244 2.0 6.0 0.00 0.09 0.00 78 1019.6
20260509160757 81 202 2.0 6.0 0.00 0.09 0.00 78 1019.5
20260509160258 81 220 0.0 3.0 0.00 0.09 0.00 79 1019.5
20260509155757 81 214 1.0 3.0 0.00 0.09 0.00 80 1019.7
20260509155258 80 192 1.0 3.0 0.00 0.09 0.00 81 1019.7
20260509154757 80 162 1.0 4.0 0.00 0.09 0.00 81 1019.6
20260509154256 80 173 2.0 4.0 0.00 0.09 0.00 82 1019.5
20260509153257 0 0.0 0.0 0.00 0.09 0.00 1019.4
20260509152757 0 0.0 0.0 0.00 0.09 0.00 1019.1
20260509152255 0 0.0 0.0 0.00 0.09 0.00 1018.8
20260509151253 0 0.0 0.0 0.00 0.09 0.00 1019.2
20260509150752 0 0.0 0.0 0.00 0.09 0.00 1019.2
20260509150250 79 152 2.0 4.0 0.00 0.09 0.00 84 1019.3
20260509145750 79 152 2.0 4.0 0.00 0.09 0.00 84 1019.2
20260509145250 79 200 2.0 4.0 0.00 0.09 0.00 83 1019.1
20260509144748 79 185 2.0 3.0 0.00 0.09 0.00 85 1019.1
20260509143749 78 206 2.0 4.0 0.00 0.09 0.00 85 1019.3
20260509143247 78 216 2.0 4.0 0.00 0.09 0.00 86 1019.5
20260509142749 77 206 0.0 4.0 0.00 0.09 0.00 86 1019.5
20260509142248 77 161 2.0 4.0 0.00 0.09 0.00 87 1019.6
20260509141749 76 188 2.0 3.0 0.00 0.09 0.00 88 1019.6
20260509141248 76 188 0.0 3.0 0.00 0.09 0.00 89 1019.7
20260509135746 75 214 2.0 4.0 0.00 0.09 0.00 88 1019.6
20260509135248 75 172 0.0 3.0 0.00 0.09 0.00 89 1019.5
20260509134747 75 162 1.0 4.0 0.00 0.09 0.00 89 1019.4
20260509134246 75 164 2.0 4.0 0.00 0.09 0.00 90 1019.4
20260509133748 75 234 2.0 4.0 0.00 0.09 0.00 90 1019.6
20260509133248 74 165 1.0 3.0 0.00 0.09 0.00 90 1019.4
20260509132746 74 212 2.0 3.0 0.00 0.09 0.00 90 1019.4
20260509132247 74 172 2.0 3.0 0.00 0.09 0.00 91 1019.3
20260509131746 73 168 1.0 3.0 0.00 0.09 0.00 92 1019.4
20260509131247 73 111 1.0 3.0 0.00 0.09 0.00 91 1019.3
20260509130746 73 185 0.0 3.0 0.00 0.09 0.00 91 1019.1
20260509130247 73 164 1.0 3.0 0.00 0.09 0.00 91 1019.2
20260509125746 73 172 1.0 3.0 0.00 0.09 0.00 91 1019.1
20260509125246 73 185 2.0 3.0 0.00 0.09 0.00 92 1019.1
20260509124745 72 175 2.0 2.0 0.00 0.09 0.00 92 1019.0
20260509124245 72 128 0.0 2.0 0.00 0.09 0.00 92 1019.1
20260509123745 72 128 0.0 2.0 0.00 0.09 0.00 92 1019.0
20260509123246 72 135 1.0 2.0 0.00 0.09 0.00 1 1018.9
20260509122746 72 144 0.0 1.0 0.00 0.09 0.00 1 1019.0
20260509122245 0 0.0 0.0 0.00 0.09 0.00 1018.9
20260509121743 0 0.0 0.0 0.00 0.09 0.00 1018.9
20260509121242 0 0.0 0.0 0.00 0.09 0.00 1018.7
20260509120240 0 0.0 0.0 0.00 0.09 0.00 1018.7
20260509115238 0 0.0 0.0 0.00 0.09 0.00 1018.9
20260509114737 0 0.0 0.0 0.00 0.09 0.00 1018.9
20260509114235 0 0.0 0.0 0.00 0.09 0.00 1019.0
20260509113734 0 0.0 0.0 0.00 0.09 0.00 1019.0
20260509113233 0 0.0 0.0 0.00 0.09 0.00 1018.8
20260509112732 0 0.0 0.0 0.00 0.09 0.00 1018.8
20260509112230 0 0.0 0.0 0.00 0.09 0.00 1018.5
20260509111729 0 0.0 0.0 0.00 0.09 0.00 1018.4